Regional Weather Roundup
Issued by NWS

Home | Current Version | Previous Version | Graphics & Text | Print | Product List | Glossary On
Versions: 1 2 3 4 5 6 7 8 9 10 11 12 13 14 15 16 17 18 19 20 21 22 23 24 25 26 27 28 29 30 31 32 33 34 35 36 37 38 39 40 41 42 43 44 45 46 47 48 49 50
000
ASUS44 KMEG 280210
RWRTN
TENNESSEE HOURLY STATE WEATHER ROUNDUP
NATIONAL WEATHER SERVICE MEMPHIS TN
900 PM CDT WED MAY 27 2015

TNZ002-004-019-021-049-052-054-088>092-280300-
WEST TENNESSEE

CITY           SKY/WX    TMP DP  RH WIND       PRES   REMARKS
MEMPHIS INTL   CLOUDY    73  66  78 SE7       30.09S
NWS MEMPHIS      N/A     72 N/A N/A MISG        N/A
JACKSON        CLOUDY    71  66  84 S5        30.13R
DYERSBURG      MOCLDY    72  55  56 CALM      30.11S
PARIS          CLEAR     66  66 100 SE3       30.15R
LEXINGTON      CLEAR     66  66 100 CALM      30.14R
$$

TNZ008-025-027-028-033-062-065-066-280300-
NORTH MIDDLE TENNESSEE

CITY           SKY/WX    TMP DP  RH WIND       PRES   REMARKS
NASHVILLE      CLOUDY    69  68  96 CALM      30.18R
CLARKSVILLE    CLOUDY    70  67  90 S5        30.15R
SMYRNA         CLOUDY    69  68  97 CALM      30.19R
COOKEVILLE     PTCLDY    70  66  88 CALM      30.19R
CROSSVILLE     CLOUDY    68  63  84 SW5       30.24R
$$

TNZ061-075-076-078-094-096-097-280300-
SOUTH MIDDLE TENNESSEE

CITY           SKY/WX    TMP DP  RH WIND       PRES   REMARKS
FAYETTEVILLE     N/A    N/A N/A N/A MISG      30.23R
TULLAHOMA      MOCLDY    70  66  88 CALM      30.22R
WINCHESTER     CLOUDY    70  66  88 S7        30.22R
MCMINNVILLE    CLOUDY    70  68  94 CALM      30.21R
COLUMBIA       CLOUDY    68  66  94 S7        30.17R
SHELBYVILLE    MOCLDY    70  68  94 CALM      30.21R
$$

TNZ017-018-042-046-047-280300-
NORTHEAST TENNESSEE

CITY           SKY/WX    TMP DP  RH WIND       PRES   REMARKS
TRI CITIES     PTCLDY    72  59  63 CALM      30.21R
ELIZABETHTON   MOCLDY    66  63  88 CALM      30.22R
$$

TNZ012-013-036-069-073-074-280300-
CENTRAL EAST TENNESSEE

CITY           SKY/WX    TMP DP  RH WIND       PRES   REMARKS
KNOXVILLE      CLOUDY    77  61  57 CALM      30.18R
OAK RIDGE      CLOUDY    75  66  73 W3        30.20R
GATLINBURG       N/A     72  61  68 E3        30.18S
MORRISTOWN     CLEAR     70  63  78 CALM      30.21R
$$

TNZ083-085-099-280300-
SOUTHEAST TENNESSEE

CITY           SKY/WX    TMP DP  RH WIND       PRES   REMARKS
CHATTANOOGA    CLOUDY    77  65  66 S5        30.20R
$$

SKY/WX REPORTED AS FAIR MEANS FEW OR NO CLOUDS BELOW
12 THOUSAND FEET.




USA.gov is the U.S. government's official web portal to all federal, state and local government web resources and services.